Total_Precipitation_Accumulation
1.32 1.37 1.49 1.61 1.79 1.87 1.86 1.90 1.93 1.95 2.09 2.20 2.30 2.37 2.39 2.44 2.59 2.68 2.51 2.66 2.66 2.77 2.71 2.67 2.63 2.82 2.87 2.71 2.86 2.96 3.18 3.39 3.14 2.71 2.81 2.81 2.71 2.49 2.46 2.40 2.29 2.25 2.04
1.36 1.46 1.61 1.71 1.82 1.89 1.81 1.90 2.10 2.13 2.17 2.26 2.36 2.45 2.35 2.44 2.59 2.54 2.52 2.58 2.63 2.62 2.73 2.93 2.86 3.01 3.02 2.97 3.15 3.13 3.21 3.44 3.34 3.02 2.90 2.95 2.83 2.68 2.59 2.37 2.04 1.95 1.95
1.72 1.70 1.74 1.73 1.82 1.95 2.01 2.04 2.15 2.25 2.31 2.29 2.27 2.34 2.46 2.64 2.68 2.52 2.50 2.49 2.40 2.33 2.51 2.79 3.08 3.52 3.37 3.20 3.08 2.99 3.02 3.08 3.30 3.05 2.81 3.01 2.85 2.74 2.69 2.35 2.09 2.03 1.71
1.64 1.65 1.77 1.85 1.98 2.12 2.21 2.26 2.29 2.29 2.31 2.37 2.42 2.44 2.52 2.56 2.52 2.50 2.55 2.54 2.50 2.35 2.37 2.48 2.64 2.93 3.09 3.24 3.02 2.90 2.95 3.03 3.17 3.11 3.05 3.26 3.29 3.13 2.93 2.54 2.36 2.21 1.95
1.91 2.09 2.25 2.27 2.29 2.40 2.46 2.45 2.49 2.45 2.37 2.56 2.60 2.57 2.56 2.51 2.31 2.50 2.63 2.51 2.60 2.50 2.43 2.36 2.20 2.33 2.52 2.72 2.58 2.88 3.07 3.04 3.11 3.17 3.28 3.64 3.63 3.42 2.90 2.64 2.53 2.41 2.15
2.25 2.57 2.70 2.73 2.74 2.78 2.81 2.79 2.78 2.72 2.84 2.87 2.71 2.65 2.59 2.33 2.49 2.55 2.59 2.61 2.70 2.63 2.54 2.49 2.31 2.14 2.11 2.24 2.31 2.53 2.80 2.85 2.94 3.09 3.17 3.37 3.42 3.36 3.13 2.85 2.62 2.46 2.17
2.26 2.47 2.58 2.68 2.77 2.94 2.96 2.95 2.93 2.93 2.95 2.94 2.98 2.93 2.81 2.86 2.87 2.53 2.47 2.49 2.56 2.56 2.70 2.77 2.33 1.94 2.14 2.10 2.19 2.21 2.15 2.31 2.52 2.74 2.89 2.95 3.27 3.39 3.40 2.97 2.79 2.60 2.25
2.46 2.64 2.74 2.73 2.76 2.82 2.80 2.72 2.74 2.88 2.90 2.85 2.79 2.72 2.68 2.65 2.72 2.47 2.40 2.28 2.30 2.32 2.34 2.36 2.33 2.15 2.08 2.11 2.09 1.96 1.82 1.83 1.96 2.03 2.13 2.42 2.79 3.27 3.57 3.30 3.17 2.97 2.61
2.62 2.73 2.85 2.94 2.99 2.87 2.76 2.76 2.82 2.91 2.78 2.71 2.64 2.63 2.57 2.57 2.64 2.44 2.39 2.20 2.16 2.09 2.06 2.07 2.10 1.97 2.04 2.01 1.91 1.86 1.79 1.68 1.69 1.77 1.76 1.89 2.21 2.62 3.11 3.32 3.06 2.71 2.40
2.60 2.70 2.83 2.91 3.07 3.17 3.09 3.10 3.06 3.00 2.90 2.84 2.75 2.74 2.71 2.67 2.80 2.54 2.39 2.19 2.18 2.19 2.28 2.25 2.20 2.03 2.01 1.90 1.74 1.75 1.62 1.51 1.62 1.61 1.54 1.55 1.67 2.01 2.52 2.68 2.79 2.63 2.34
2.30 2.33 2.53 2.77 2.99 3.15 3.24 3.23 3.24 3.16 3.04 2.82 2.64 2.57 2.55 2.59 2.73 2.53 2.37 2.16 2.16 2.28 2.36 2.40 2.35 2.25 1.94 1.78 1.64 1.56 1.55 1.68 1.76 1.75 1.70 1.71 1.85 2.04 2.20 2.44 2.67 2.72 2.50
2.33 2.45 2.60 2.82 2.91 2.93 3.05 3.10 3.23 3.20 3.10 2.98 2.73 2.51 2.40 2.27 2.22 2.23 2.10 1.99 2.04 2.15 2.25 2.37 2.42 2.33 2.05 1.90 1.74 1.61 1.66 1.63 1.64 1.75 1.74 1.70 1.74 1.85 2.04 2.33 2.60 2.66 2.54
2.57 2.66 2.73 2.81 2.91 2.98 3.04 3.04 3.03 2.98 2.83 2.73 2.59 2.46 2.38 2.31 2.22 2.04 1.82 1.76 1.80 1.83 1.97 2.33 2.46 2.31 2.08 1.81 1.72 1.72 1.64 1.51 1.54 1.58 1.51 1.47 1.53 1.67 1.87 2.16 2.50 2.70 2.62
2.63 2.54 2.52 2.52 2.59 2.68 2.79 2.83 2.78 2.68 2.60 2.53 2.45 2.37 2.27 2.22 2.09 1.97 1.86 1.73 1.69 1.68 1.69 1.92 2.04 2.01 1.82 1.68 1.60 1.51 1.42 1.43 1.42 1.41 1.43 1.50 1.61 1.66 1.71 1.85 2.23 2.57 2.68
2.61 2.63 2.66 2.65 2.68 2.72 2.79 2.87 2.75 2.60 2.56 2.42 2.29 2.32 2.28 2.12 2.06 2.02 1.88 1.74 1.67 1.73 1.72 1.73 1.82 1.92 1.90 1.83 1.81 1.73 1.65 1.58 1.49 1.44 1.53 1.58 1.70 1.80 1.84 1.95 2.21 2.42 2.39
2.66 2.59 2.62 2.68 2.77 2.86 2.90 2.93 2.99 2.71 2.62 2.46 2.33 2.25 2.17 2.03 1.92 1.79 1.72 1.66 1.56 1.55 1.47 1.50 1.69 1.88 2.01 2.02 2.06 2.03 1.93 1.84 1.77 1.77 1.80 1.79 1.78 1.84 1.90 1.95 2.15 2.35 2.35
2.69 2.69 2.70 2.67 2.71 2.76 2.72 2.65 2.69 2.61 2.42 2.33 2.22 2.06 1.93 1.83 1.67 1.58 1.55 1.55 1.49 1.42 1.28 1.40 1.57 1.71 1.90 2.06 2.12 2.09 2.00 2.01 2.09 2.08 2.03 2.01 2.00 2.01 2.06 2.05 2.07 2.23 2.30
2.61 2.70 2.74 2.72 2.63 2.59 2.52 2.46 2.41 2.40 2.26 2.09 1.99 1.91 1.84 1.76 1.73 1.72 1.70 1.62 1.51 1.43 1.33 1.51 1.69 1.83 1.96 2.15 2.20 2.17 2.18 2.17 2.20 2.18 2.19 2.17 2.16 2.15 2.15 2.11 2.05 2.04 2.16
2.38 2.34 2.31 2.34 2.32 2.31 2.22 2.13 2.05 1.98 2.02 2.06 1.93 1.80 1.82 1.73 1.78 1.90 1.76 1.57 1.59 1.61 1.62 1.68 1.77 1.88 2.02 2.17 2.32 2.39 2.41 2.37 2.33 2.29 2.25 2.28 2.32 2.31 2.18 2.11 2.16 2.18 2.15
1.91 2.03 1.93 1.84 1.85 1.87 1.87 1.86 1.80 1.79 1.86 1.99 1.94 1.72 1.66 1.60 1.67 1.82 1.67 1.64 1.71 1.70 1.67 1.72 1.76 1.80 1.96 2.09 2.19 2.25 2.29 2.27 2.27 2.31 2.26 2.25 2.27 2.29 2.21 2.19 2.26 2.26 2.13
1.53 1.54 1.57 1.46 1.51 1.65 1.71 1.71 1.70 1.75 1.80 1.84 1.76 1.59 1.52 1.41 1.62 1.75 1.68 1.63 1.60 1.56 1.56 1.56 1.61 1.68 1.80 1.96 2.04 2.12 2.20 2.18 2.14 2.17 2.25 2.26 2.18 2.19 2.18 2.19 2.22 2.29 2.24
1.18 1.16 1.17 1.16 1.29 1.41 1.44 1.48 1.56 1.61 1.65 1.67 1.57 1.42 1.41 1.38 1.56 1.65 1.60 1.58 1.56 1.56 1.56 1.58 1.54 1.55 1.66 1.81 1.87 1.97 2.12 2.11 2.03 2.04 2.16 2.30 2.24 2.16 2.21 2.26 2.27 2.29 2.28
1.04 1.09 1.13 1.14 1.22 1.26 1.26 1.33 1.48 1.55 1.56 1.56 1.48 1.41 1.37 1.40 1.48 1.56 1.59 1.54 1.50 1.49 1.49 1.54 1.58 1.57 1.63 1.75 1.77 1.84 1.99 1.99 1.95 1.98 2.08 2.15 2.15 2.14 2.18 2.19 2.20 2.27 2.25
1.07 1.10 1.13 1.08 1.06 1.10 1.17 1.22 1.28 1.30 1.34 1.37 1.36 1.31 1.29 1.31 1.36 1.37 1.38 1.37 1.43 1.47 1.49 1.57 1.61 1.66 1.74 1.75 1.68 1.63 1.70 1.73 1.69 1.72 1.81 1.95 2.04 2.10 2.13 2.10 2.06 2.08 2.16
1.03 1.10 1.13 1.19 1.21 1.20 1.21 1.22 1.23 1.20 1.21 1.24 1.26 1.29 1.31 1.30 1.32 1.35 1.38 1.40 1.41 1.46 1.46 1.49 1.55 1.62 1.66 1.57 1.49 1.48 1.59 1.52 1.45 1.45 1.56 1.75 1.87 1.95 2.01 2.00 2.00 2.05 2.14
1.11 1.18 1.26 1.32 1.34 1.35 1.38 1.39 1.35 1.30 1.30 1.27 1.31 1.35 1.42 1.48 1.49 1.50 1.49 1.48 1.48 1.49 1.48 1.51 1.52 1.47 1.47 1.43 1.36 1.37 1.34 1.22 1.21 1.31 1.37 1.52 1.70 1.75 1.87 1.96 1.93 1.97 2.02